Time,TemperatureF,DewpointF,PressureIn,WindDirection,WindDirectionDegrees,WindSpeedMPH,WindSpeedGustMPH,Humidity,HourlyPrecipIn,Conditions,Clouds,dailyrainin,SoftwareType,DateUTC
2013-04-25 00:50:00,65.0,-99.9,-100.00,West,276,17.0,22.0,-999,-99.99,,,-99.99,,2013-04-25 07:50:00,
2013-04-25 00:53:00,65.0,-99.9,-100.00,West,279,19.0,24.0,-999,-99.99,,,-99.99,,2013-04-25 07:53:00,
2013-04-25 01:02:00,66.0,-99.9,-100.00,West,274,14.0,22.0,-999,-99.99,,,-99.99,,2013-04-25 08:02:00,
2013-04-25 01:11:00,66.0,-99.9,-100.00,West,274,14.0,22.0,-999,-99.99,,,-99.99,,2013-04-25 08:11:00,
2013-04-25 01:22:00,66.0,-99.9,-100.00,West,274,14.0,22.0,-999,-99.99,,,-99.99,,2013-04-25 08:22:00,
2013-04-25 01:32:00,65.0,-99.9,-100.00,West,276,17.0,22.0,-999,-99.99,,,-99.99,,2013-04-25 08:32:00,
2013-04-25 01:42:00,65.0,-99.9,-100.00,West,276,17.0,22.0,-999,-99.99,,,-99.99,,2013-04-25 08:42:00,
2013-04-25 03:50:00,65.0,-99.9,-100.00,West,271,23.0,25.0,-999,-99.99,,,-99.99,,2013-04-25 10:50:00,
2013-04-25 04:33:00,65.0,-99.9,-100.00,West,271,23.0,25.0,-999,-99.99,,,-99.99,,2013-04-25 11:33:00,
2013-04-25 04:42:00,65.0,-99.9,-100.00,West,271,23.0,25.0,-999,-99.99,,,-99.99,,2013-04-25 11:42:00,
2013-04-25 05:01:00,65.0,-99.9,-100.00,West,269,18.0,23.0,-999,-99.99,,,-99.99,,2013-04-25 12:01:00,
2013-04-25 05:12:00,65.0,-99.9,-100.00,West,269,18.0,23.0,-999,-99.99,,,-99.99,,2013-04-25 12:12:00,
2013-04-25 05:22:00,65.0,-99.9,-100.00,West,276,15.0,20.0,-999,-99.99,,,-99.99,,2013-04-25 12:22:00,
2013-04-25 05:32:00,65.0,-99.9,-100.00,West,276,15.0,20.0,-999,-99.99,,,-99.99,,2013-04-25 12:32:00,
2013-04-25 05:42:00,65.0,-99.9,-100.00,West,276,15.0,20.0,-999,-99.99,,,-99.99,,2013-04-25 12:42:00,
2013-04-25 05:52:00,65.0,-99.9,-100.00,West,279,18.0,33.0,-999,-99.99,,,-99.99,,2013-04-25 12:52:00,
2013-04-25 06:02:00,66.0,-99.9,-100.00,West,265,5.0,19.0,-999,-99.99,,,-99.99,,2013-04-25 13:02:00,
2013-04-25 06:11:00,66.0,-99.9,-100.00,West,265,5.0,19.0,-999,-99.99,,,-99.99,,2013-04-25 13:11:00,
2013-04-25 06:21:00,66.0,-99.9,-100.00,West,265,5.0,19.0,-999,-99.99,,,-99.99,,2013-04-25 13:21:00,
2013-04-25 08:02:00,66.0,-99.9,-100.00,WSW,249,18.0,21.0,-999,-99.99,,,-99.99,,2013-04-25 15:02:00,
2013-04-25 08:11:00,66.0,-99.9,-100.00,WSW,249,18.0,21.0,-999,-99.99,,,-99.99,,2013-04-25 15:11:00,
2013-04-25 10:53:00,71.0,-99.9,-100.00,WNW,282,17.0,19.0,-999,-99.99,,,-99.99,,2013-04-25 17:53:00,
2013-04-25 11:02:00,71.0,-99.9,-100.00,WNW,282,17.0,19.0,-999,-99.99,,,-99.99,,2013-04-25 18:02:00,
2013-04-25 12:32:00,76.0,-99.9,-100.00,West,269,16.0,22.0,-999,-99.99,,,-99.99,,2013-04-25 19:32:00,
2013-04-25 12:42:00,76.0,-99.9,-100.00,West,269,16.0,22.0,-999,-99.99,,,-99.99,,2013-04-25 19:42:00,
2013-04-25 13:32:00,78.0,-99.9,-100.00,West,279,3.0,23.0,-999,-99.99,,,-99.99,,2013-04-25 20:32:00,
2013-04-25 13:43:00,78.0,-99.9,-100.00,West,279,3.0,23.0,-999,-99.99,,,-99.99,,2013-04-25 20:43:00,
2013-04-25 13:52:00,78.0,-99.9,-100.00,West,279,3.0,23.0,-999,-99.99,,,-99.99,,2013-04-25 20:52:00,
2013-04-25 16:22:00,79.0,-99.9,-100.00,West,275,21.0,22.0,-999,-99.99,,,-99.99,,2013-04-25 23:22:00,
2013-04-25 16:32:00,80.0,-99.9,-100.00,WSW,245,3.0,23.0,-999,-99.99,,,-99.99,,2013-04-25 23:32:00,
2013-04-25 16:42:00,80.0,-99.9,-100.00,WSW,245,3.0,23.0,-999,-99.99,,,-99.99,,2013-04-25 23:42:00,
2013-04-25 16:52:00,79.0,-99.9,-100.00,WNW,291,6.0,29.0,-999,-99.99,,,-99.99,,2013-04-25 23:52:00,
2013-04-25 17:01:00,80.0,-99.9,-100.00,West,264,6.0,18.0,-999,-99.99,,,-99.99,,2013-04-26 00:01:00,
2013-04-25 17:11:00,80.0,-99.9,-100.00,West,264,6.0,18.0,-999,-99.99,,,-99.99,,2013-04-26 00:11:00,
2013-04-25 17:22:00,80.0,-99.9,-100.00,West,264,6.0,18.0,-999,-99.99,,,-99.99,,2013-04-26 00:22:00,
2013-04-25 18:52:00,78.0,-99.9,-100.00,WNW,289,4.0,13.0,-999,-99.99,,,-99.99,,2013-04-26 01:52:00,
2013-04-25 19:02:00,78.0,-99.9,-100.00,West,277,9.0,17.0,-999,-99.99,,,-99.99,,2013-04-26 02:02:00,
2013-04-25 19:10:00,76.0,-99.9,-100.00,West,262,14.0,22.0,-999,-99.99,,,-99.99,,2013-04-26 02:10:00,
2013-04-25 19:12:00,78.0,-99.9,-100.00,West,277,9.0,17.0,-999,-99.99,,,-99.99,,2013-04-26 02:12:00,
2013-04-25 19:22:00,78.0,-99.9,-100.00,WNW,283,8.0,17.0,-999,-99.99,,,-99.99,,2013-04-26 02:22:00,
2013-04-25 19:32:00,78.0,-99.9,-100.00,WNW,283,8.0,17.0,-999,-99.99,,,-99.99,,2013-04-26 02:32:00,
2013-04-25 19:42:00,78.0,-99.9,-100.00,WNW,283,8.0,17.0,-999,-99.99,,,-99.99,,2013-04-26 02:42:00,
2013-04-25 19:52:00,76.0,-99.9,-100.00,West,262,14.0,22.0,-999,-99.99,,,-99.99,,2013-04-26 02:52:00,
2013-04-25 20:01:00,76.0,-99.9,-100.00,West,262,14.0,22.0,-999,-99.99,,,-99.99,,2013-04-26 03:01:00,
2013-04-25 22:52:00,73.0,-99.9,-100.00,West,273,8.0,18.0,-999,-99.99,,,-99.99,,2013-04-26 05:52:00,
2013-04-25 23:02:00,73.0,-99.9,-100.00,West,273,8.0,18.0,-999,-99.99,,,-99.99,,2013-04-26 06:02:00,
2013-04-25 23:22:00,72.0,-99.9,-100.00,West,267,10.0,22.0,-999,-99.99,,,-99.99,,2013-04-26 06:22:00,
2013-04-25 23:32:00,72.0,-99.9,-100.00,West,267,10.0,22.0,-999,-99.99,,,-99.99,,2013-04-26 06:32:00,
2013-04-25 23:50:00,69.0,-99.9,-100.00,West,260,7.0,19.0,-999,-99.99,,,-99.99,,2013-04-26 06:50:00,